QPF
0.00 0.00 0.00 0.00 0.00 0.00 0.00 0.00 0.00 0.00 0.00 0.00 0.00 0.00 0.00 0.00 0.00 0.00 0.00 0.00 0.00 0.00
0.00 0.00 0.00 0.00 0.00 0.00 0.00 0.00 0.00 0.00 0.00 0.00 0.00 0.00 0.00 0.00 0.00 0.00 0.00 0.00 0.00 0.00
0.00 0.00 0.00 0.00 0.00 0.00 0.00 0.00 0.00 0.00 0.00 0.00 0.00 0.00 0.00 0.00 0.00 0.00 0.00 0.00 0.00 0.00
0.00 0.00 0.00 0.00 0.00 0.00 0.00 0.00 0.00 0.00 0.00 0.00 0.00 0.00 0.00 0.00 0.00 0.00 0.00 0.00 0.00 0.00
0.00 0.00 0.00 0.00 0.00 0.00 0.00 0.00 0.00 0.00 0.00 0.00 0.00 0.00 0.00 0.00 0.00 0.00 0.00 0.00 0.00 0.00
0.00 0.00 0.00 0.00 0.00 0.00 0.00 0.00 0.00 0.00 0.00 0.00 0.00 0.00 0.00 0.00 0.00 0.00 0.00 0.00 0.00 0.00
0.00 0.00 0.00 0.00 0.00 0.00 0.00 0.00 0.00 0.00 0.00 0.00 0.00 0.00 0.00 0.00 0.00 0.00 0.00 0.00 0.00 0.00
0.00 0.00 0.00 0.00 0.00 0.00 0.00 0.00 0.00 0.00 0.00 0.00 0.00 0.00 0.00 0.00 0.00 0.00 0.00 0.00 0.00 0.00
0.00 0.00 0.00 0.00 0.00 0.00 0.00 0.00 0.00 0.00 0.00 0.00 0.00 0.00 0.00 0.00 0.00 0.00 0.00 0.00 0.00 0.00
0.00 0.00 0.00 0.00 0.00 0.00 0.00 0.00 0.00 0.00 0.00 0.00 0.00 0.00 0.00 0.00 0.01 0.00 0.00 0.00 0.00 0.00
0.00 0.00 0.00 0.00 0.00 0.00 0.00 0.00 0.00 0.00 0.00 0.00 0.00 0.00 0.00 0.01 0.01 0.00 0.00 0.00 0.00 0.00
0.00 0.00 0.00 0.00 0.00 0.00 0.00 0.00 0.00 0.00 0.00 0.00 0.00 0.00 0.01 0.02 0.01 0.00 0.00 0.00 0.00 0.00
0.00 0.00 0.00 0.00 0.00 0.00 0.00 0.00 0.00 0.00 0.00 0.00 0.00 0.00 0.00 0.01 0.01 0.00 0.00 0.00 0.00 0.00
0.00 0.00 0.00 0.00 0.00 0.00 0.00 0.00 0.00 0.00 0.00 0.00 0.00 0.00 0.00 0.00 0.00 0.00 0.00 0.00 0.00 0.00
MSLP
1019.85 1020.39 1020.72 1021.26 1021.77 1022.09 1022.38 1022.53 1022.68 1023.08 1023.28 1023.76 1024.11 1024.51 1024.97 1025.34 1025.67 1025.90 1026.24 1026.49 1026.73 1026.86
1019.09 1019.74 1020.19 1020.58 1021.00 1021.34 1021.68 1021.93 1022.26 1022.63 1022.87 1023.29 1023.82 1024.17 1024.61 1025.07 1025.28 1025.63 1025.95 1026.18 1026.52 1026.76
1018.36 1018.75 1019.22 1019.81 1020.33 1020.75 1021.10 1021.40 1021.85 1022.26 1022.55 1022.81 1023.22 1023.70 1024.22 1024.73 1024.89 1025.32 1025.54 1025.86 1026.28 1026.56
1017.85 1018.19 1018.71 1019.20 1019.68 1020.12 1020.55 1020.81 1021.23 1021.53 1021.98 1022.38 1022.75 1023.16 1023.75 1024.07 1024.50 1024.84 1025.13 1025.49 1025.80 1026.12
1017.27 1017.81 1018.25 1018.59 1018.87 1019.33 1019.67 1019.98 1020.34 1020.71 1021.15 1021.58 1021.96 1022.35 1022.87 1023.40 1023.87 1024.30 1024.64 1024.77 1025.33 1025.57
1017.21 1017.32 1017.40 1017.67 1018.06 1018.51 1018.87 1019.21 1019.58 1019.93 1020.23 1020.63 1021.12 1021.53 1021.93 1022.37 1022.88 1023.35 1023.59 1023.84 1024.24 1024.61
1016.74 1016.84 1016.93 1016.98 1017.15 1017.48 1017.79 1018.19 1018.56 1018.86 1019.16 1019.51 1019.94 1020.39 1020.92 1021.45 1021.93 1022.33 1022.63 1022.92 1023.37 1023.70
1017.29 1016.73 1016.39 1016.50 1016.72 1016.93 1016.96 1016.96 1017.14 1017.56 1018.04 1018.42 1018.85 1019.26 1019.85 1020.36 1020.71 1021.15 1021.65 1022.08 1022.55 1022.95
1017.80 1017.18 1016.69 1016.06 1015.86 1016.00 1016.17 1016.29 1016.59 1016.84 1017.07 1017.38 1017.57 1017.94 1018.38 1018.87 1019.60 1020.09 1020.56 1021.15 1021.61 1022.07
1018.69 1018.01 1017.28 1016.90 1016.48 1015.82 1015.73 1015.81 1015.87 1015.97 1016.18 1016.22 1016.44 1016.80 1017.23 1017.71 1018.28 1018.92 1019.37 1019.89 1020.55 1021.46
1019.46 1018.81 1018.11 1017.58 1017.07 1016.55 1016.27 1015.93 1015.63 1015.45 1015.45 1015.58 1015.64 1015.96 1016.23 1016.53 1017.17 1017.88 1018.37 1018.96 1019.54 1020.19
1020.04 1019.31 1018.57 1017.96 1017.57 1017.04 1016.56 1016.24 1015.99 1015.70 1015.21 1015.05 1014.96 1015.19 1015.44 1016.15 1016.76 1017.24 1017.67 1018.21 1018.91 1019.50
1020.48 1019.71 1018.87 1018.13 1017.58 1017.08 1016.79 1016.55 1016.28 1015.87 1015.63 1015.39 1015.06 1014.88 1015.06 1015.62 1016.14 1016.91 1017.47 1017.92 1018.42 1018.83
1020.58 1019.89 1019.01 1018.15 1017.46 1016.91 1016.64 1016.41 1016.19 1015.92 1015.60 1015.36 1015.18 1015.03 1015.14 1015.47 1015.90 1016.26 1017.27 1017.92 1018.33 1018.48
Thickness
5646 5643 5643 5641 5638 5637 5636 5635 5634 5631 5630 5626 5623 5620 5616 5613 5610 5607 5604 5602 5599 5596
5648 5645 5643 5641 5639 5638 5637 5635 5634 5631 5629 5626 5621 5618 5615 5611 5609 5605 5602 5599 5595 5591
5648 5648 5647 5643 5640 5637 5635 5633 5632 5629 5626 5624 5621 5617 5613 5609 5606 5603 5600 5596 5591 5587
5647 5646 5645 5643 5640 5637 5634 5632 5630 5628 5626 5623 5620 5616 5612 5608 5604 5601 5598 5593 5589 5585
5643 5642 5641 5640 5639 5635 5633 5630 5629 5627 5625 5623 5619 5615 5612 5607 5603 5598 5594 5592 5586 5582
5636 5637 5639 5638 5635 5632 5630 5628 5626 5625 5625 5622 5618 5615 5611 5608 5603 5598 5595 5592 5587 5582
5629 5631 5633 5633 5633 5631 5629 5627 5625 5624 5623 5622 5619 5616 5611 5606 5601 5597 5594 5591 5585 5580
5613 5621 5626 5626 5626 5625 5626 5627 5626 5624 5622 5620 5617 5614 5609 5604 5600 5596 5592 5587 5581 5576
5597 5605 5611 5619 5622 5622 5620 5621 5619 5619 5618 5617 5616 5614 5609 5605 5598 5593 5589 5584 5578 5573
5576 5585 5593 5598 5603 5611 5613 5613 5613 5614 5613 5615 5614 5610 5605 5600 5595 5590 5587 5582 5575 5565
5555 5562 5570 5576 5583 5590 5594 5599 5603 5605 5606 5606 5607 5604 5601 5597 5591 5585 5582 5577 5570 5562
5536 5543 5552 5558 5562 5568 5574 5580 5585 5589 5594 5596 5598 5596 5594 5586 5581 5576 5573 5568 5561 5555
5518 5525 5534 5541 5547 5552 5556 5561 5564 5569 5573 5577 5582 5583 5581 5576 5569 5564 5559 5555 5549 5545
5500 5508 5517 5525 5531 5537 5541 5544 5547 5552 5556 5560 5562 5564 5564 5560 5556 5554 5545 5539 5534 5533